Hulett, WY

11:24 AM MDT on September 23, 2019 (GMT -0600)
Hulett

Weather History for KW43 - August, 2019

Change the Weather History Date:

Monday, August 19, 2019

  Actual Average (KEFC) Record (KEFC)
Temperature  
Mean Temperature 71 °F -  
Max Temperature 89 °F 87 °F 103 °F (1948)
Min Temperature 53 °F 55 °F 41 °F (1978)
Cooling Degree Days 6    
Growing Degree Days 21 (Base 50)    
Moisture  
Dew Point 49 °F    
Average Humidity 49    
Maximum Humidity 88    
Minimum Humidity 16    
Precipitation  
Precipitation 0.00 in - - ()
Sea Level Pressure  
Sea Level Pressure 29.99 in    
Wind  
Wind Speed 5 mph (SW)    
Max Wind Speed 14 mph    
Max Gust Speed 22 mph    
Visibility 10 miles    
Events      
Averages and records for this station are not official NWS values.
T = Trace of Precipitation, MM = Missing Value Source: NWS Daily Summary

Daily Weather History Graph

Daily Weather History Graph

Search for Another Location

Airport or City:

Astronomy

Aug. 19, 2019 Rise Set
Actual Time 6:05 AM MDT 7:57 PM MDT
Civil Twilight 5:33 AM MDT 8:28 PM MDT
Nautical Twilight 4:55 AM MDT 9:07 PM MDT
Astronomical Twilight 4:13 AM MDT 9:48 PM MDT
Moon 10:10 PM MDT (8/19) 9:56 AM MDT (8/19)
Length of Visible Light 14h 55m
Length of Day
13h 52m
Waning Gibbous, 85% of the Moon is Illuminated
Aug 19
Waning Gibbous
Aug 23
Last Quarter
Aug 30
New
Sep 5
First Quarter
Sep 13
Full

Hourly Weather History & Observations

Time (MDT) Temp. Heat Index Dew Point Humidity Pressure Visibility Wind Dir Wind Speed Gust Speed Precip Events Conditions
12:15 AM 55.4 °F - 50.0 °F 82% 29.98 in 10.0 mi South 5.8 mph - N/A   Clear
12:35 AM 53.6 °F - 50.0 °F 88% 29.98 in 10.0 mi South 4.6 mph - N/A   Clear
12:55 AM 55.4 °F - 50.0 °F 82% 29.98 in 10.0 mi South 4.6 mph - N/A   Clear
1:15 AM 55.4 °F - 50.0 °F 82% 29.98 in 10.0 mi SSE 5.8 mph - N/A   Clear
1:35 AM 55.4 °F - 50.0 °F 82% 29.98 in 10.0 mi South 5.8 mph - N/A   Clear
1:55 AM 53.6 °F - 50.0 °F 88% 29.98 in 10.0 mi South 6.9 mph - N/A   Clear
2:15 AM 55.4 °F - 50.0 °F 82% 29.98 in 10.0 mi SW 4.6 mph - N/A   Clear
2:35 AM 55.4 °F - 50.0 °F 82% 29.98 in 10.0 mi SE 4.6 mph - N/A   Clear
2:55 AM 57.2 °F - 50.0 °F 77% 29.98 in 10.0 mi Calm Calm - N/A   Clear
3:15 AM 59.0 °F - 48.2 °F 67% 29.97 in 10.0 mi Calm Calm - N/A   Clear
3:35 AM 59.0 °F - 48.2 °F 67% 29.97 in 10.0 mi Calm Calm - N/A   Clear
3:55 AM 60.8 °F - 48.2 °F 63% 29.97 in 10.0 mi Calm Calm - N/A   Clear
4:15 AM 60.8 °F - 50.0 °F 68% 29.97 in 10.0 mi Calm Calm - N/A   Clear
4:35 AM 60.8 °F - 50.0 °F 68% 29.97 in 10.0 mi Calm Calm - N/A   Clear
4:55 AM 60.8 °F - 50.0 °F 68% 29.97 in 10.0 mi Calm Calm - N/A   Clear
5:15 AM 59.0 °F - 50.0 °F 72% 29.97 in 10.0 mi Calm Calm - N/A   Clear
5:35 AM 60.8 °F - 50.0 °F 68% 29.98 in 10.0 mi Calm Calm - N/A   Clear
5:55 AM 59.0 °F - 50.0 °F 72% 29.98 in 10.0 mi SSE 3.5 mph - N/A   Clear
6:15 AM 59.0 °F - 50.0 °F 72% 29.98 in 10.0 mi Calm Calm - N/A   Clear
6:35 AM 59.0 °F - 50.0 °F 72% 29.98 in 10.0 mi Calm Calm - N/A   Clear
6:55 AM 59.0 °F - 51.8 °F 77% 29.97 in 10.0 mi Calm Calm - N/A   Clear
7:15 AM 60.8 °F - 53.6 °F 77% 29.98 in 10.0 mi Calm Calm - N/A   Clear
7:35 AM 62.6 °F - 53.6 °F 72% 29.98 in 10.0 mi Calm Calm - N/A   Clear
7:55 AM 62.6 °F - 55.4 °F 77% 29.98 in 10.0 mi Calm Calm - N/A   Clear
8:15 AM 68.0 °F - 55.4 °F 64% 29.97 in 10.0 mi Calm Calm - N/A   Clear
8:55 AM 68.0 °F - 55.4 °F 64% 29.98 in 10.0 mi WSW 3.5 mph - N/A   Clear
9:15 AM 69.8 °F - 59.0 °F 68% 29.98 in 10.0 mi WSW 4.6 mph - N/A   Clear
9:35 AM 71.6 °F - 59.0 °F 64% 29.98 in 10.0 mi WSW 4.6 mph - N/A   Clear
9:55 AM 75.2 °F - 60.8 °F 61% 29.98 in 10.0 mi SW 5.8 mph - N/A   Clear
10:15 AM 78.8 °F - 53.6 °F 42% 29.98 in 10.0 mi SSW 9.2 mph - N/A   Clear
10:35 AM 78.8 °F - 55.4 °F 44% 29.98 in 7.0 mi SSW 12.7 mph 19.6 mph N/A   Clear
10:55 AM 80.6 °F 80.5 °F 55.4 °F 42% 29.98 in 5.0 mi SW 10.4 mph - N/A   Clear
11:15 AM 80.6 °F 80.5 °F 55.4 °F 42% 29.98 in 10.0 mi SSW 9.2 mph - N/A   Clear
11:35 AM 82.4 °F 81.7 °F 55.4 °F 39% 29.98 in 10.0 mi SW 9.2 mph 16.1 mph N/A   Clear
11:55 AM 82.4 °F 81.4 °F 53.6 °F 37% 29.98 in 5.0 mi SW 9.2 mph - N/A   Clear
12:15 PM 84.2 °F 83.0 °F 55.4 °F 37% 29.98 in 10.0 mi WSW 9.2 mph - N/A   Clear
12:35 PM 86.0 °F 84.2 °F 53.6 °F 33% 29.98 in 10.0 mi SW 10.4 mph - N/A   Clear
12:55 PM 86.0 °F - 51.8 °F 31% 29.98 in 10.0 mi SW 4.6 mph - N/A   Clear
1:15 PM 86.0 °F 84.2 °F 53.6 °F 33% 29.98 in 10.0 mi WNW 4.6 mph - N/A   Clear
1:35 PM 87.8 °F - 51.8 °F 29% 29.98 in 10.0 mi WSW 9.2 mph - N/A   Clear
1:55 PM 87.8 °F - 50.0 °F 27% 29.98 in 7.0 mi West 5.8 mph - N/A   Clear
2:15 PM 87.8 °F - 46.4 °F 24% 29.98 in 7.0 mi WNW 8.1 mph - N/A   Clear
2:35 PM 87.8 °F - 46.4 °F 24% 29.97 in 10.0 mi NNW 10.4 mph 16.1 mph N/A   Clear
2:55 PM 87.8 °F - 44.6 °F 22% 29.98 in 10.0 mi West 8.1 mph 21.9 mph N/A   Clear
3:15 PM 89.6 °F - 37.4 °F 16% 29.97 in 10.0 mi WNW 4.6 mph 21.9 mph N/A   Clear
3:35 PM 89.6 °F - 41.0 °F 18% 29.97 in 10.0 mi NNW 6.9 mph - N/A   Clear
3:55 PM 87.8 °F - 41.0 °F 19% 29.98 in 10.0 mi NNW 13.8 mph 18.4 mph N/A   Clear
4:15 PM 87.8 °F - 41.0 °F 19% 29.98 in 10.0 mi NNW 12.7 mph 18.4 mph N/A   Clear
4:35 PM 87.8 °F - 41.0 °F 19% 29.98 in 10.0 mi NNW 11.5 mph - N/A   Clear
4:55 PM 87.8 °F - 41.0 °F 19% 29.98 in 10.0 mi NNW 6.9 mph 17.3 mph N/A   Clear
5:15 PM 87.8 °F - 42.8 °F 21% 29.98 in 10.0 mi North 6.9 mph - N/A   Clear
5:35 PM 87.8 °F - 41.0 °F 19% 29.98 in 10.0 mi North 8.1 mph - N/A   Clear
5:55 PM 86.0 °F - 44.6 °F 23% 29.98 in 10.0 mi NNW 6.9 mph - N/A   Clear
6:15 PM 86.0 °F - 44.6 °F 23% 29.98 in 10.0 mi NNW 4.6 mph - N/A   Clear
6:35 PM 86.0 °F - 44.6 °F 23% 29.98 in 10.0 mi NNE 3.5 mph - N/A   Clear
6:55 PM 84.2 °F - 41.0 °F 22% 29.99 in 10.0 mi NE 3.5 mph - N/A   Clear
7:15 PM 82.4 °F - 44.6 °F 26% 29.99 in 10.0 mi ENE 3.5 mph - N/A   Clear
7:35 PM 80.6 °F - 44.6 °F 28% 29.99 in 10.0 mi NE 4.6 mph - N/A   Clear
7:55 PM 77.0 °F - 46.4 °F 34% 30.00 in 10.0 mi East 5.8 mph - N/A   Clear
8:15 PM 75.2 °F - 44.6 °F 34% 30.01 in 10.0 mi NE 4.6 mph - N/A   Clear
8:35 PM 75.2 °F - 44.6 °F 34% 30.01 in 10.0 mi NE 5.8 mph - N/A   Clear
8:55 PM 75.2 °F - 44.6 °F 34% 30.02 in 10.0 mi Calm Calm - N/A   Clear
9:15 PM 69.8 °F - 48.2 °F 46% 30.03 in 10.0 mi ESE 5.8 mph - N/A   Clear
9:35 PM 69.8 °F - 46.4 °F 43% 30.04 in 10.0 mi SE 8.1 mph - N/A   Clear
9:55 PM 69.8 °F - 46.4 °F 43% 30.04 in 10.0 mi East 6.9 mph - N/A   Clear
10:15 PM 66.2 °F - 48.2 °F 52% 30.05 in 10.0 mi SSE 6.9 mph - N/A   Clear
10:35 PM 69.8 °F - 44.6 °F 40% 30.05 in 10.0 mi ESE 4.6 mph - N/A   Clear
10:55 PM 68.0 °F - 46.4 °F 46% 30.05 in 10.0 mi East 4.6 mph - N/A   Clear
11:15 PM 64.4 °F - 46.4 °F 52% 30.06 in 10.0 mi East 5.8 mph - N/A   Clear
11:35 PM 64.4 °F - 50.0 °F 59% 30.07 in 10.0 mi SE 3.5 mph - N/A   Clear
11:55 PM 69.8 °F - 44.6 °F 40% 30.07 in 10.0 mi Calm Calm - N/A   Clear